Etusivu
METAR-TAF:

METAR-TAF

Lentoasemat :

Isedor Iverson Airport

McGregor, Minnesota, Yhdysvallat

Leveyspiiri: 46-37-07N, Pituuspiiri: 093-18-35W, korkeus merenpinnasta: 374 m

Tämänhetkinen sää

Tämä raportti tehtiin 13 minuuttia sitten, kello 09.56 UTC
tyyntä
Lämpötila 0°C
Kosteus 100%
Ilmanpaine 1016 hPa
Näkyvyys: 1.6 km

METAR: KHZX 170956Z AUTO 00000KT 1SM VV007 00/00 A3000 RMK AO2

Aika: 05:09 (10:09 UTC)


TAF: puuttuu

Säähavainnot ja -ennusteet yli 4000 lentoasemalta (METAR- ja TAF-raportit).

Käytössä olevat sääasemat on merkitty karttaan keltaisilla ja punaisilla pisteillä.

Aseta hiiri pisteen päälle nähdäksesi sääaseman nimen.

Klikkaa sitten nähdäksesi säähavainnot ja -ennusteet.

Kartan vaihtaminen: klikkaa mustalla rastilla varustettuja vihreitä pisteitä, niin voit zoomata sisään; viivalla varustettua vihreää pistettä, niin voit zoomata ulos tai vihreitä nuolia, niin pääset viereisille kartoille.


METAR-TAF: